THORAD AGENA D DEB, 42506

Orbit data source: Space-Track

THORAD AGENA D DEB, 42506 is space debris in SSO originally from a launch on Wed, 08 Apr 1970 UTC launched from the Air Force Western Test Range (AFWTR). Debris objects in space refer to the collection of defunct objects orbiting the Earth. Examples of debris include non-operational satellites, rocket bodies, and fragments generated from explosions, collisions, or faulty payload assembly.

Loading next visibility...
Identifier
42506, 1970-025RL
Orbit
SSO
Country
Flag of USUS
Related business
Manufacturer
Unknown
Mission
Spacecraft
Bus & Motor
Unknown
Mass
Unknown
Launch date (UTC)
1970-04-08 (56 years ago)
Launch vehicle
Unknown
Launch site
Air Force Western Test Range (AFWTR)
Object type
Payload
Rocket body
Debris
Shape & HBR
Unknown shape, 0.1 m
Radar Cross Section
Small (<0.1 m²)

Expand to show TLE details & history
Last TLE update: 4 days ago

TLE from 4 days ago
0 THORAD AGENA D DEB
1 42506U 70025RL  26169.48445159  .00000354  00000-0  37156-3 0  9992
2 42506  99.5573 245.1905 0048321 309.0967  50.5893 13.81611225283064
Epoch: 2026-06-18T11:37Z
TLE epoch observation values (Epoch: 2026-06-18T11:37:36.617Z)
Latitude
-0.00002°
Longitude
164.06082°
Altitude
938.604 km
Speed
7.394 km/s
True Right ascension
16h 20m 45s
True Declination
0° 00' 00"
Sunlit
Object was in full shadow at epoch
Visualization orbit readout
Latitude
Unknown
Longitude
Unknown
Altitude
Unknown
Speed
Unknown
Apparent Right ascension
Unknown
Apparent Declination
Unknown
Sunlit
N/A
Visualization observer readout
Local Sidereal Time
21:52:23
Azimuth
Unknown
Elevation
Unknown
Doppler factor
Unknown
Orbital elements
Apogee altitude
990.866 km
Perigee altitude
919.993 km
Semi-major axis
7,333.566 km
Eccentricity
0.00483
Inclination
99.5573°
RAAN
245.1905°
Arg. of periapsis
309.0967°
True anomaly
51.01875°
Mean anomaly
50.5893°
Eccentric anomaly
50.80386°
Mean motion
3.45597 °/min
Orbital period
104.17 mins
BSTAR
0.00037156

Documentation

Showing up to 5 results
|